Tracking 22879 objects as of 21-Apr-2021
HD Live streaming from Space Station
objects crossing your sky now

DELTA 1 DEB

Track DELTA 1 DEB now!
10-day predictions


NORAD ID: 7145
Int'l Code: 1973-086DK
Perigee: 1,514.8 km
Apogee: 2,028.4 km
Inclination: 101.9 °
Period: 121.9 minutes
Semi major axis: 8142 km
RCS: 0.3002 m2 (medium)
Launch date: November 6, 1973
Source: United States (US)
Launch site: AIR FORCE WESTERN TEST RANGE (AFWTR)

Note: This is SATELLITE DEBRIS
aabbcc
Your satellite tracking list
Your tracking list is empty




NASA's NSSDC Master Catalog

Two Line Element Set (TLE):
1 07145U 73086DK  21111.61845299 -.00000039  00000-0 -81248-5 0  9993
2 07145 101.9232 116.2410 0315385 325.6287 151.1690 11.81568044 46450
Source of the keplerian elements: AFSPC